SUNNYSIDE Weather Reports


time (UTC)temp
C
wind
direction
speed
KPH
gust
KPH
rain 1hr
cm
rain 24hr
cm
rain mn
cm
humidity
%
barometer
mb
20260901191033 20 271 11.3 25.7 0.00 0.05 0.00 45 982.3
20260901190529 20 252 14.5 25.7 0.00 0.05 0.00 45 982.4
20260901190030 20 360 11.3 22.5 0.00 0.05 0.00 45 982.4
20260901185529 20 247 14.5 22.5 0.00 0.05 0.00 45 982.4
20260901185029 20 246 12.9 22.5 0.00 0.05 0.00 45 982.4
20260901184532 20 360 12.9 19.3 0.00 0.05 0.00 46 982.3
20260901184028 20 270 9.7 27.4 0.00 0.05 0.00 46 982.3
20260901183529 20 282 12.9 27.4 0.00 0.05 0.00 45 982.3
20260901183038 20 360 16.1 22.5 0.00 0.05 0.00 46 982.4
20260901182526 20 360 12.9 22.5 0.00 0.05 0.00 46 982.3
20260901182026 20 277 16.1 29.0 0.00 0.05 0.00 45 982.2
20260901181526 20 290 14.5 29.0 0.00 0.05 0.00 45 982.2
20260901181023 20 290 14.5 24.1 0.00 0.05 0.00 48 982.2
20260901180527 20 263 14.5 20.9 0.00 0.05 0.00 47 982.2
20260901180022 19 360 12.9 22.5 0.00 0.05 0.00 48 982.1
20260901175523 19 277 14.5 25.7 0.00 0.05 0.00 47 982.3
20260901175020 19 243 17.7 25.7 0.00 0.05 0.00 47 982.3
20260901174520 19 249 16.1 25.7 0.00 0.05 0.00 47 982.3
20260901174021 19 300 14.5 22.5 0.00 0.05 0.00 47 982.4
20260901173522 19 306 16.1 24.1 0.00 0.05 0.00 48 982.4
20260901173031 19 234 12.9 24.1 0.00 0.05 0.00 48 982.3
20260901172520 18 227 16.1 24.1 0.00 0.05 0.00 48 982.3
20260901172020 18 245 14.5 24.1 0.00 0.05 0.00 49 982.4
20260901171520 18 246 14.5 25.7 0.00 0.05 0.00 49 982.4
20260901171021 18 286 17.7 29.0 0.00 0.05 0.00 49 982.3
20260901170518 18 288 17.7 29.0 0.00 0.05 0.00 49 982.3
20260901170018 18 244 14.5 24.1 0.00 0.05 0.00 49 982.2
20260901165517 18 254 14.5 24.1 0.00 0.05 0.00 49 982.2
20260901165017 18 281 11.3 25.7 0.00 0.05 0.00 49 982.2
20260901164519 18 360 12.9 25.7 0.00 0.05 0.00 48 982.1
20260901164017 18 253 12.9 20.9 0.00 0.05 0.00 48 982.1
20260901163517 18 360 14.5 20.9 0.00 0.05 0.00 48 982.1
20260901163017 18 232 11.3 20.9 0.00 0.05 0.00 48 982.0
20260901162517 18 360 9.7 17.7 0.00 0.05 0.00 48 982.2
20260901162016 18 247 9.7 19.3 0.00 0.05 0.00 48 981.9
20260901161516 18 277 11.3 22.5 0.00 0.05 0.00 47 982.0
20260901161016 18 307 11.3 22.5 0.00 0.05 0.00 47 981.9
20260901160515 18 283 9.7 22.5 0.00 0.05 0.00 48 981.8
20260901160015 18 275 14.5 22.5 0.00 0.05 0.00 47 981.9
20260901155515 19 261 14.5 22.5 0.00 0.05 0.00 47 981.9
20260901155014 19 360 14.5 22.5 0.00 0.05 0.00 47 981.7
20260901154513 19 260 11.3 24.1 0.00 0.05 0.00 48 981.6
20260901154013 19 264 11.3 32.2 0.00 0.05 0.00 46 981.7
20260901153513 19 271 12.9 32.2 0.00 0.05 0.00 48 981.5
20260901153012 19 272 14.5 25.7 0.00 0.05 0.00 47 981.5
20260901152510 19 254 16.1 25.7 0.00 0.05 0.00 47 981.3
20260901152008 18 268 14.5 27.4 0.00 0.05 0.00 47 981.5
20260901151510 18 277 14.5 27.4 0.00 0.05 0.00 48 981.4
20260901151005 18 360 14.5 27.4 0.00 0.05 0.00 48 981.3
20260901150504 18 243 16.1 24.1 0.00 0.05 0.00 48 981.2
20260901150003 18 262 14.5 24.1 0.00 0.05 0.00 49 981.2
20260901145501 18 241 11.3 27.4 0.00 0.05 0.00 49 981.2
20260901145002 18 304 14.5 29.0 0.00 0.05 0.00 49 981.2
20260901144601 18 248 17.7 29.0 0.00 0.05 0.00 49 981.1
20260901144058 18 360 17.7 27.4 0.00 0.05 0.00 49 981.0
20260901143557 18 269 16.1 29.0 0.00 0.05 0.00 49 980.9
20260901143056 18 248 19.3 25.7 0.00 0.05 0.00 49 981.0
20260901142554 17 360 17.7 30.6 0.00 0.05 0.00 49 980.8
20260901142052 17 284 20.9 30.6 0.00 0.05 0.00 50 980.8
20260901141552 17 263 14.5 25.7 0.00 0.05 0.00 51 980.7
20260901141050 17 237 16.1 24.1 0.00 0.05 0.00 51 980.7
20260901140548 17 360 12.9 24.1 0.00 0.05 0.00 52 980.5
20260901140058 17 272 12.9 22.5 0.00 0.05 0.00 52 980.6
20260901135545 17 243 14.5 22.5 0.00 0.05 0.00 52 980.4
20260901135044 17 360 14.5 22.5 0.00 0.05 0.00 53 980.3
20260901134604 16 360 14.5 22.5 0.00 0.05 0.00 53 980.1
20260901134044 16 244 12.9 22.5 0.00 0.05 0.00 53 980.1
20260901133542 16 293 12.9 22.5 0.00 0.05 0.00 54 980.0
20260901133046 16 243 14.5 24.1 0.00 0.05 0.00 55 980.0
20260901132540 16 276 16.1 22.5 0.00 0.05 0.00 55 980.1
20260901132042 16 244 16.1 24.1 0.00 0.05 0.00 57 980.1
20260901131539 16 275 14.5 24.1 0.00 0.05 0.00 58 980.0
20260901131038 15 236 12.9 24.1 0.00 0.05 0.00 58 980.1
20260901130535 15 228 14.5 27.4 0.00 0.05 0.00 59 980.2
20260901130040 15 240 12.9 27.4 0.00 0.05 0.00 61 980.2
20260901125535 15 239 14.5 24.1 0.00 0.05 0.00 62 980.1
20260901125033 15 234 12.9 20.9 0.00 0.05 0.00 62 980.0
20260901124533 15 239 11.3 25.7 0.00 0.05 0.00 63 979.9
20260901124035 15 236 16.1 25.7 0.00 0.05 0.00 64 979.9
20260901123533 14 235 12.9 19.3 0.00 0.05 0.00 64 979.8
20260901123034 14 245 9.7 17.7 0.00 0.05 0.00 64 979.8
20260901122532 14 232 11.3 17.7 0.00 0.05 0.00 64 979.7
20260901122033 14 228 9.7 14.5 0.00 0.05 0.00 64 979.6
20260901121530 14 247 8.0 16.1 0.00 0.05 0.00 64 979.5
20260901121031 14 242 9.7 14.5 0.00 0.05 0.00 64 979.4
20260901120528 14 244 8.0 14.5 0.00 0.05 0.00 64 979.5
20260901120047 14 360 8.0 14.5 0.00 0.05 0.00 64 979.4
20260901115528 14 254 6.4 12.9 0.00 0.05 0.00 64 979.3
20260901115032 14 360 4.8 16.1 0.00 0.05 0.00 64 979.1
20260901114528 14 242 8.0 16.1 0.00 0.05 0.00 64 979.2
20260901114027 14 227 8.0 12.9 0.00 0.05 0.00 64 979.2
20260901113526 14 240 6.4 14.5 0.00 0.05 0.00 63 979.1
20260901113026 14 360 8.0 14.5 0.00 0.05 0.00 63 979.0
20260901112526 14 230 8.0 14.5 0.00 0.05 0.00 63 978.9
20260901112028 14 240 8.0 14.5 0.00 0.05 0.00 63 979.0
20260901111525 14 231 6.4 12.9 0.00 0.05 0.00 62 978.9
20260901111024 14 231 8.0 12.9 0.00 0.05 0.00 62 979.0
20260901110524 14 238 8.0 14.5 0.00 0.05 0.00 62 978.9
20260901110024 14 244 6.4 12.9 0.00 0.05 0.00 62 978.8
20260901105527 14 235 6.4 12.9 0.00 0.05 0.00 61 978.8
20260901105027 15 360 6.4 16.1 0.00 0.05 0.00 61 978.7
20260901104525 15 236 9.7 16.1 0.00 0.05 0.00 61 978.8
20260901104126 15 234 9.7 14.5 0.00 0.05 0.00 61 978.7
20260901103529 15 236 9.7 14.5 0.00 0.05 0.00 61 978.8
20260901103027 15 240 9.7 14.5 0.00 0.05 0.00 61 978.8
20260901102525 15 236 9.7 17.7 0.00 0.05 0.00 61 978.8
20260901102022 15 244 9.7 17.7 0.00 0.05 0.00 61 978.7
20260901101521 15 242 11.3 19.3 0.00 0.05 0.00 61 978.7
20260901101020 15 240 9.7 19.3 0.00 0.05 0.00 62 978.7
20260901100521 15 216 9.7 16.1 0.00 0.05 0.00 63 978.6
20260901100019 15 229 6.4 14.5 0.00 0.05 0.00 63 978.5
20260901095519 15 225 6.4 14.5 0.00 0.05 0.00 63 978.6
20260901095019 15 226 6.4 14.5 0.00 0.05 0.00 64 978.5
20260901094523 15 198 4.8 14.5 0.00 0.05 0.00 64 978.5
20260901094017 15 232 4.8 14.5 0.00 0.05 0.00 64 978.5
20260901093519 15 234 4.8 14.5 0.00 0.05 0.00 64 978.5
20260901093015 14 234 6.4 14.5 0.00 0.05 0.00 65 978.6
20260901092516 14 222 6.4 11.3 0.00 0.05 0.00 65 978.7
20260901092015 14 225 4.8 19.3 0.00 0.05 0.00 64 978.7
20260901091514 13 233 8.0 19.3 0.00 0.05 0.00 64 978.7
20260901091013 13 240 6.4 16.1 0.00 0.05 0.00 63 978.6
20260901090513 13 242 8.0 16.1 0.00 0.05 0.00 63 978.5
20260901090013 13 236 9.7 16.1 0.00 0.05 0.00 62 978.6
20260901085512 13 225 8.0 14.5 0.00 0.05 0.00 62 978.5
20260901085011 13 240 9.7 16.1 0.00 0.05 0.00 61 978.5
20260901084512 13 238 8.0 14.5 0.00 0.05 0.00 61 978.5
20260901084011 13 244 8.0 17.7 0.00 0.05 0.00 61 978.5
20260901083511 13 234 11.3 20.9 0.00 0.05 0.00 61 978.6
20260901083011 13 234 14.5 20.9 0.00 0.05 0.00 61 978.5
20260901082508 13 227 9.7 20.9 0.00 0.05 0.00 61 978.5
20260901082010 13 225 12.9 17.7 0.00 0.05 0.00 61 978.5
20260901081509 13 236 11.3 19.3 0.00 0.05 0.00 61 978.5
20260901081006 13 240 11.3 19.3 0.00 0.05 0.00 61 978.4
20260901080506 13 248 9.7 17.7 0.00 0.05 0.00 61 978.4
20260901080005 13 231 11.3 17.7 0.00 0.05 0.00 61 978.4
20260901075506 13 242 9.7 19.3 0.00 0.05 0.00 61 978.3
20260901075005 13 242 9.7 17.7 0.00 0.05 0.00 61 978.4
20260901074507 13 224 11.3 17.7 0.00 0.05 0.00 61 978.3
20260901074003 13 254 9.7 17.7 0.00 0.05 0.00 61 978.3
20260901073503 13 360 9.7 17.7 0.00 0.05 0.00 60 978.3
20260901073003 13 360 11.3 20.9 0.00 0.05 0.00 61 978.4
20260901072501 13 244 11.3 20.9 0.00 0.05 0.00 61 978.4
20260901072001 13 242 11.3 22.5 0.00 0.05 0.00 61 978.4
20260901071502 13 240 12.9 22.5 0.00 0.05 0.00 61 978.4
20260901071059 13 360 11.3 19.3 0.00 0.05 0.00 61 978.3
20260901070558 13 234 8.0 19.3 0.00 0.05 0.00 60 978.3
20260901070104 14 233 11.3 19.3 0.00 0.05 0.00 61 978.3
20260901065557 14 248 11.3 17.7 0.00 0.23 0.00 61 978.3
20260901065056 14 244 11.3 16.1 0.00 0.23 0.00 60 978.1
20260901064556 14 227 9.7 16.1 0.00 0.23 0.00 60 978.1
20260901064056 14 229 8.0 17.7 0.00 0.23 0.00 60 978.2
20260901063556 14 360 8.0 17.7 0.00 0.23 0.00 60 978.1
20260901063054 14 242 11.3 16.1 0.00 0.23 0.00 60 978.1
20260901062554 14 242 9.7 19.3 0.00 0.23 0.00 60 978.1
20260901062054 14 360 9.7 19.3 0.00 0.23 0.00 60 978.1
20260901061554 14 247 9.7 16.1 0.00 0.23 0.00 60 978.1
20260901061053 14 238 9.7 17.7 0.00 0.23 0.00 60 978.1
20260901060554 14 252 11.3 17.7 0.00 0.23 0.00 60 977.9
20260901060051 14 360 8.0 16.1 0.00 0.23 0.00 60 977.9
20260901055550 14 360 8.0 14.5 0.00 3.61 0.00 59 977.9
20260901055050 14 245 8.0 14.5 0.00 3.61 0.00 59 977.8
20260901054549 14 244 6.4 14.5 0.00 3.61 0.00 59 977.8
20260901054049 14 245 8.0 19.3 0.00 3.61 0.00 59 977.7
20260901053553 14 236 9.7 19.3 0.00 3.61 0.00 59 977.6
20260901053115 14 242 11.3 16.1 0.00 3.61 0.00 59 977.5
20260901052546 14 233 6.4 12.9 0.00 3.61 0.00 58 977.4
20260901052045 14 248 6.4 12.9 0.00 3.61 0.00 58 977.6
20260901051602 14 240 8.0 16.1 0.00 3.61 0.00 57 977.7
20260901051043 14 236 8.0 16.1 0.00 3.61 0.00 57 977.6
20260901050542 15 235 11.3 16.1 0.00 3.61 0.00 57 977.6
20260901050041 15 242 9.7 16.1 0.00 3.61 0.00 57 977.4
20260901045540 15 239 12.9 16.1 0.00 5.00 0.00 57 977.5
20260901045040 15 244 9.7 14.5 0.00 5.00 0.00 57 977.4
20260901044552 15 239 11.3 17.7 0.00 5.00 0.00 57 977.4
20260901044039 15 240 9.7 17.7 0.00 5.00 0.00 58 977.3
20260901043538 14 229 11.3 16.1 0.00 5.00 0.00 58 977.2
20260901043038 14 233 8.0 12.9 0.00 5.00 0.00 58 977.2
20260901042537 14 236 6.4 11.3 0.00 5.00 0.00 58 977.2
20260901042036 14 226 6.4 11.3 0.00 5.00 0.00 57 977.2
20260901041536 14 224 6.4 14.5 0.00 5.00 0.00 57 977.1
20260901041035 14 237 8.0 16.1 0.00 5.00 0.00 57 977.1
20260901040534 14 230 8.0 12.9 0.00 5.00 0.00 57 977.1
20260901040039 14 221 6.4 14.5 0.00 5.00 0.00 56 977.0
20260901035534 14 236 4.8 12.9 0.00 5.00 0.00 56 977.0
20260901035033 14 227 4.8 9.7 0.00 5.00 0.00 55 977.0
20260901034532 14 217 3.2 9.7 0.00 5.00 0.00 54 976.9
20260901034031 15 229 1.6 11.3 0.00 5.00 0.00 54 976.9
20260901033531 15 239 4.8 11.3 0.00 5.00 0.00 54 977.0
20260901033033 15 236 1.6 8.0 0.00 5.00 0.00 54 976.9
20260901032530 15 223 1.6 4.8 0.00 5.00 0.00 54 976.8
20260901032029 15 223 0.0 8.0 0.00 5.00 0.00 54 976.8
20260901031532 15 219 0.0 8.0 0.00 5.00 0.00 54 976.8
20260901031030 15 225 1.6 9.7 0.00 5.00 0.00 54 976.7
20260901030527 15 228 4.8 9.7 0.00 5.00 0.00 54 976.8
20260901030028 15 224 6.4 11.3 0.00 5.00 0.00 54 976.7
20260901025526 15 229 4.8 9.7 0.00 5.00 0.00 54 976.7
20260901025027 15 233 3.2 9.7 0.00 5.00 0.00 54 976.5
20260901024525 15 225 6.4 9.7 0.00 5.00 0.00 55 976.6
20260901024028 14 236 3.2 8.0 0.00 5.00 0.00 55 976.5
20260901023525 14 237 3.2 8.0 0.00 5.00 0.00 55 976.6
20260901023036 14 240 3.2 8.0 0.00 5.00 0.00 54 976.5
20260901022523 15 234 3.2 8.0 0.00 5.00 0.00 53 976.5
20260901022023 15 240 4.8 9.7 0.00 5.00 0.00 53 976.5
20260901021524 15 237 4.8 9.7 0.00 5.00 0.00 53 976.4
20260901010526 16 360 12.9 19.3 0.00 5.00 0.05 51 975.6
20260901010024 16 360 9.7 22.5 0.00 5.00 0.05 50 975.6
20260901005525 17 244 12.9 22.5 0.00 5.00 0.05 50 975.4
20260901005025 17 218 14.5 25.7 0.00 5.00 0.05 49 975.2
20260901004523 17 240 17.7 25.7 0.00 5.00 0.05 49 975.1
20260901004021 17 232 17.7 25.7 0.00 5.00 0.05 49 975.2
20260901003520 17 234 17.7 29.0 0.03 5.00 0.05 50 975.1
20260901003019 17 234 17.7 29.0 0.05 5.00 0.05 51 974.9
20260831232056 20 232 24.1 37.0 0.00 4.95 3.56 52 973.3
20260831231557 20 229 24.1 51.5 0.00 4.95 3.56 53 973.2
20260831231056 20 269 32.2 53.1 0.00 4.95 3.56 52 973.2
20260831230554 21 234 32.2 53.1 0.00 4.95 3.56 52 973.1
20260831230108 21 218 32.2 46.7 0.00 4.95 3.56 51 972.9
20260831225557 21 240 29.0 49.9 0.00 4.95 3.56 50 972.8
20260831225054 21 229 32.2 49.9 0.00 4.95 3.56 50 972.7
20260831224554 21 226 32.2 53.1 0.00 4.95 3.56 50 972.5
20260831224055 21 218 30.6 53.1 0.00 4.95 3.56 50 972.4
20260831223558 21 239 32.2 49.9 0.00 4.95 3.56 50 972.4
20260831223055 21 245 27.4 45.1 0.00 4.95 3.56 50 972.3
20260831222555 21 215 22.5 45.1 0.00 4.95 3.56 50 972.4
20260831222055 22 292 17.7 61.2 0.00 4.95 3.56 49 972.3
20260831221602 22 214 40.2 61.2 0.00 4.95 3.56 49 972.2
20260831221053 22 224 19.3 53.1 0.00 4.95 3.56 49 972.4
20260831220553 22 208 29.0 49.9 0.00 4.95 3.56 48 972.4
20260831215556 22 235 17.7 41.8 0.00 4.95 3.56 49 972.2
20260831215053 22 219 20.9 41.8 0.00 4.95 3.56 49 972.1
20260831214553 22 227 16.1 49.9 0.00 4.95 3.56 49 971.9
20260831214053 21 249 24.1 49.9 0.00 4.95 3.56 49 972.1
20260831213553 22 221 14.5 45.1 0.00 4.95 3.56 48 972.3
20260831213058 22 223 22.5 45.1 0.00 4.95 3.56 46 972.4
20260831212552 22 252 12.9 49.9 0.00 4.95 3.56 46 972.4
20260831212056 22 223 20.9 35.4 0.00 4.95 3.56 45 972.3
20260831211602 22 227 8.0 19.3 0.00 4.95 3.56 47 972.0
20260831211051 22 227 9.7 19.3 0.00 4.95 3.56 46 971.9
20260831210551 22 232 6.4 16.1 0.00 4.95 3.56 46 971.8
20260831210050 22 221 8.0 16.1 0.00 4.95 3.56 46 971.8
20260831205550 22 238 4.8 24.1 0.00 4.95 3.56 45 971.9
20260831205050 22 215 8.0 24.1 0.00 4.95 3.56 45 972.0
20260831204554 22 206 6.4 22.5 0.00 4.95 3.56 45 972.1
20260831204050 22 230 11.3 22.5 0.00 4.95 3.56 45 972.1
20260831203550 22 222 11.3 40.2 0.00 4.95 3.56 44 972.2
20260831203050 22 221 14.5 29.0 0.00 4.95 3.56 44 972.4
20260831202551 22 229 11.3 27.4 0.00 4.95 3.56 43 972.4
20260831202048 22 192 12.9 32.2 0.00 4.95 3.56 43 972.2
20260831201548 22 198 12.9 32.2 0.00 4.95 3.56 42 972.2
20260831201049 22 233 11.3 24.1 0.00 4.95 3.56 42 972.2
20260831200547 22 198 9.7 17.7 0.00 4.95 3.56 43 972.4
20260831200053 22 182 8.0 16.1 0.00 4.95 3.56 43 972.6
20260831195544 22 197 4.8 25.7 0.00 4.95 3.56 44 972.7
20260831195044 22 220 12.9 25.7 0.00 4.95 3.56 44 972.8
20260831194544 22 148 8.0 30.6 0.00 4.95 3.56 44 972.8
20260831194043 21 111 12.9 30.6 0.00 4.95 3.56 44 973.0
20260831193543 21 234 6.4 29.0 0.00 4.95 3.56 44 973.1
20260831193045 21 190 4.8 12.9 0.00 4.95 3.56 44 973.1
20260831192542 21 243 3.2 20.9 0.00 4.95 3.56 43 973.2
20260831192045 21 209 6.4 20.9 0.00 4.95 3.56 42 973.3
20260831191542 22 196 8.0 20.9 0.00 4.95 3.56 42 973.4